Tracking 31027 objects as of 19-Jul-2025
HD Live streaming from Space Station
objects crossing your sky now

STARLINK-32009

Track STARLINK-32009 now!
10-day predictions
STARLINK-32009 is classified as:


NORAD ID: 60104
Int'l Code: 2024-117P
Perigee: 481.6 km
Apogee: 483.2 km
Inclination: 53.2 °
Period: 94.1 minutes
Semi major axis: 6853 km
RCS: Unknown
Launch date: June 23, 2024
Source: United States (US)
Launch site: AIR FORCE EASTERN TEST RANGE (AFETR)
Your satellite tracking list
SES-6
Track 1 satellite(s)




NASA's NSSDC Master Catalog

Two Line Element Set (TLE):
1 60104U 24117P   25199.54510766 -.00002788  00000-0 -82105-4 0  9993
2 60104  53.1609  44.9795 0001146  87.6785 272.4347 15.30174176 61032
Source of the keplerian elements: AFSPC